[[{"header":{"parameterUnit":"m.s-1","parameterCategory":1,"la1":30.2991,"la2":30.254,"lo1":-89.0895,"lo2":-89.0444,"dy":0.0017,"dx":0.0017,"nx":28,"ny":28,"refTime":"2025-05-15T03:00:00:Z","depth":0,"parameterNumber":2,"parameterNumberName":"U-component_of_WINDS"},"data":[0,0,0,0,0,0,0,0,0,0,0,0,0,0,0,0,0,0,0,0,0,0,0,0,0,0,0,0,0,0,0,0,0,0,0,0,0,0,0,0,0,0,0,0,0,0,0,0,0,0,0,0,0,0,0,0,0,0,0.0057,0.0056,0,-0.0039,-0.004,-0.0042,-0.0092,-0.0092,-0.0093,-0.0093,-0.0191,-0.0194,-0.0196,0,0,0,0,0,0,0,0,0,0,0,0,0,0.0195,0.0193,0.0057,0.0055,0.0054,-0.0039,-0.004,-0.0042,-0.0092,-0.0092,-0.0093,-0.0093,-0.0191,-0.0194,-0.0197,0,0,0,0,0,0,0,0,0,0,0,0,0,0.0121,0.0192,0.0057,0.0018,0.0013,-0.0039,-0.0041,-0.0042,-0.0092,-0.0092,-0.0093,-0.0093,-0.019,-0.0193,-0.0197,-0.0218,0,0,-0.0209,-0.021,0,0,0,0,0,0,0,0,0.0125,0.0116,0.0025,0.002,0.0015,-0.0054,-0.0028,-0.0101,-0.0092,-0.0052,-0.0093,-0.0093,-0.0146,-0.0153,-0.0171,-0.0223,-0.0227,-0.0209,-0.0211,-0.0213,-0.0214,0,0,0,0,0,0,0,0.013,0.0119,0.0019,0.0024,0.0018,0.0005,-0.0006,-0.0042,-0.0097,-0.0056,-0.006,-0.007,-0.0148,-0.0167,-0.0174,-0.0228,-0.0209,-0.0212,-0.0215,-0.0216,-0.0303,-0.0303,0,0,0,0,0,0,0.0142,0.0124,0.0022,0.0016,0.0071,0.0002,-0.001,-0.0032,-0.0097,-0.0107,-0.007,-0.0072,-0.016,-0.0169,-0.0177,-0.0207,-0.0213,-0.0217,-0.0219,-0.0303,-0.0303,-0.0303,0,0,0,0,0,0,0.0145,0.0133,0.0026,0.0069,0.0054,0.0,-0.0024,-0.0033,-0.0052,-0.0108,-0.0118,-0.0079,-0.0161,-0.0172,-0.0208,-0.0211,-0.0218,-0.0222,-0.0303,-0.0303,-0.0303,-0.0265,0,0,0,0,0,0,0.0149,0.0134,0.0126,0.0069,0.0052,-0.0003,-0.0024,-0.0035,-0.0059,-0.0062,-0.0119,-0.0128,-0.0162,-0.0202,-0.0211,-0.0216,-0.0225,-0.0303,-0.0303,-0.0303,-0.0266,-0.0264,-0.0262,0,0,0,0,0,0.0154,0.0141,0.0126,0.0114,0.0041,-0.0003,-0.0013,-0.0051,-0.0059,-0.0068,-0.0103,-0.0126,-0.0208,-0.0205,-0.0216,-0.0222,-0.0303,-0.0303,-0.0303,-0.0267,-0.0264,-0.0262,0,0,0,0,0,0,0.0198,0.0132,0.0115,0.0083,0.0046,-0.0011,-0.0024,-0.0046,-0.0082,-0.0084,-0.013,-0.0143,-0.0174,-0.0202,-0.0197,-0.0246,-0.0258,-0.026,-0.0227,-0.0225,-0.0222,-0.0215,-0.0228,0,0,0,0,0,0.0205,0.0175,0.0119,0.0096,0.0078,0.003,0.001,-0.0016,-0.0057,-0.0073,-0.0111,-0.0149,-0.0184,-0.0206,-0.0241,-0.027,-0.0283,-0.028,-0.0277,-0.0275,-0.0277,-0.0295,-0.0294,-0.0303,-0.0303,-0.0303,0,0,0.0217,0.0177,0.0161,0.0104,0.0072,0.0042,0.0017,-0.0013,-0.0036,-0.0077,-0.0114,-0.0143,-0.0189,-0.0222,-0.0238,-0.0246,-0.0277,-0.0275,-0.0273,-0.0276,-0.0295,-0.0294,-0.0293,-0.0303,-0.0303,-0.0303,0,0,0.0223,0.019,0.0167,0.0136,0.0088,0.0057,0.0051,-0.0003,-0.0024,-0.0061,-0.0093,-0.012,-0.0179,-0.0211,-0.0234,-0.0239,-0.0262,-0.0249,-0.0237,-0.0255,-0.0254,-0.0254,-0.0256,-0.0256,-0.0251,-0.0251,-0.025,0,0.0244,0.0198,0.0158,0.0129,0.0105,0.0066,0.0042,0.0014,-0.0043,-0.0059,-0.0067,-0.0141,-0.0175,-0.0216,-0.0217,-0.0234,-0.0243,-0.0244,-0.0251,-0.0251,-0.0251,-0.0254,-0.0255,-0.0249,-0.0249,-0.0249,-0.0249,0,0.0225,0.0194,0.0181,0.0127,0.0101,0.0075,0.0031,0.001,-0.0014,-0.0045,-0.0082,-0.0124,-0.0168,-0.0179,-0.0203,-0.0224,-0.0227,-0.0242,-0.0255,-0.0248,-0.0251,-0.0253,-0.0246,-0.0247,-0.0247,-0.0248,0,0,0.0256,0.0182,0.0177,0.0152,0.0097,0.0072,0.0044,0.0001,-0.0017,-0.0054,-0.008,-0.0128,-0.0142,-0.0169,-0.0196,-0.0211,-0.0213,-0.0224,-0.0226,-0.0221,-0.0239,-0.0228,-0.0229,-0.0228,-0.0229,-0.0229,-0.0236,0,0.0254,0.0202,0.0166,0.0128,0.0098,0.0061,0.0037,0.0,-0.0029,-0.0059,-0.0092,-0.0126,-0.0141,-0.0158,-0.0174,-0.0209,-0.0218,-0.0209,-0.0252,-0.0254,-0.0241,-0.0231,-0.0219,-0.0224,-0.0237,-0.0238,-0.0238,0,0.0245,0.0209,0.0168,0.0116,0.0102,0.008,0.0038,0.001,-0.0032,-0.0053,-0.0082,-0.011,-0.0142,-0.0151,-0.0195,-0.0189,-0.0209,-0.0229,-0.023,-0.0236,-0.0246,-0.0237,-0.0226,-0.0227,-0.024,-0.024,-0.024,0,0.0271,0.0212,0.0179,0.0159,0.0098,0.0084,0.0057,0.0015,-0.0009,-0.0045,-0.0061,-0.0101,-0.0123,-0.0154,-0.0192,-0.0195,-0.0232,-0.0245,-0.0251,-0.025,-0.0257,-0.0257,-0.025,-0.0269,-0.0269,-0.0269,-0.0269,0,0.0272,0.0248,0.019,0.017,0.0143,0.0101,0.0075,0.0045,0.0008,-0.0019,-0.0053,-0.0077,-0.0125,-0.0155,-0.0185,-0.0218,-0.0227,-0.0245,-0.0253,-0.0242,-0.024,-0.0256,-0.0257,-0.0269,-0.0269,-0.0269,-0.0269,0,0.0295,0.0256,0.0218,0.0163,0.0149,0.0131,0.0084,0.0063,0.0032,-0.0001,-0.0011,-0.006,-0.0097,-0.0138,-0.0189,-0.0209,-0.024,-0.025,-0.0225,-0.023,-0.0233,-0.0233,-0.0238,-0.0241,-0.0256,-0.0256,-0.0256,0,0.0298,0.0279,0.0222,0.0202,0.0177,0.0145,0.0121,0.008,0.0056,0.0006,-0.0009,-0.0048,-0.0082,-0.014,-0.018,-0.0219,-0.0231,-0.023,-0.0238,-0.0227,-0.0232,-0.0231,-0.0233,-0.0228,-0.0228,-0.0228,-0.0228,0,0.0307,0.0288,0.0255,0.0215,0.0188,0.0154,0.0119,0.0105,0.0056,0.0031,-0.0007,-0.0033,-0.0085,-0.0124,-0.0168,-0.0196,-0.022,-0.0225,-0.0228,-0.0218,-0.0203,-0.0212,-0.022,-0.0225,-0.0225,-0.0225,-0.0225,-0.0226,0.0319,0.0301,0.0258,0.0222,0.0192,0.016,0.0137,0.0104,0.0071,0.0026,0.0004,-0.0035,-0.0077,-0.0138,-0.0165,-0.0195,-0.0203,-0.0208,-0.0209,-0.021,-0.0207,-0.0198,-0.0203,-0.0203,-0.0203,-0.0204,-0.0204,0,0.0326,0.0297,0.0264,0.0217,0.0189,0.0169,0.0129,0.0107,0.0074,0.0037,0.0004,-0.004,-0.0078,-0.0121,-0.0161,-0.0177,-0.019,-0.0187,-0.0186,-0.0192,-0.0198,-0.0191,-0.0176,-0.0176,-0.0176,-0.0176,-0.0176,-0.0176,0.0326,0.0293,0.027,0.0221,0.0192,0.0154,0.0133,0.0104,0.0074,0.0027,-0.0005,-0.0032,-0.0072,-0.0116,-0.0151,-0.0163,-0.0177,-0.0171,-0.0185,-0.019,-0.0192,-0.0194,-0.0188,-0.0173,-0.0173,-0.0178,-0.0178,-0.0178]},{"header":{"parameterUnit":"m.s-1","parameterCategory":1,"la1":30.2991,"la2":30.254,"lo1":-89.0895,"lo2":-89.0444,"dy":0.0017,"dx":0.0017,"nx":28,"ny":28,"refTime":"2025-05-15T03:00:00:Z","depth":0,"parameterNumber":3,"parameterNumberName":"V-component_of_WINDS"},"data":[0,0,0,0,0,0,0,0,0,0,0,0,0,0,0,0,0,0,0,0,0,0,0,0,0,0,0,0,0,0,0,0,0,0,0,0,0,0,0,0,0,0,0,0,0,0,0,0,0,0,0,0,0,0,0,0,0,0,4.7724,4.7724,0,4.7736,4.7737,4.7737,4.7698,4.7696,4.7695,4.7694,4.7706,4.7708,4.7709,0,0,0,0,0,0,0,0,0,0,0,0,0,4.7669,4.767,4.7724,4.7724,4.7724,4.7736,4.7737,4.7737,4.7698,4.7696,4.7695,4.7694,4.7706,4.7708,4.7709,0,0,0,0,0,0,0,0,0,0,0,0,0,4.7688,4.767,4.7724,4.7707,4.7705,4.7736,4.7737,4.7737,4.7698,4.7696,4.7695,4.7693,4.7705,4.7707,4.771,4.7758,0,0,4.7716,4.7717,0,0,0,0,0,0,0,0,4.7687,4.769,4.7709,4.7708,4.7706,4.7714,4.7721,4.7744,4.7699,4.7701,4.7694,4.7692,4.771,4.7712,4.7718,4.7759,4.7759,4.7716,4.7718,4.7719,4.7719,0,0,0,0,0,0,0,4.7686,4.7689,4.7729,4.7709,4.7708,4.7699,4.7699,4.7725,4.7715,4.77,4.7698,4.77,4.7709,4.7716,4.7718,4.7759,4.7716,4.7718,4.7719,4.772,4.7843,4.7845,0,0,0,0,0,0,4.7687,4.7688,4.7729,4.7729,4.7692,4.7701,4.7702,4.7713,4.7715,4.7713,4.7701,4.7698,4.7713,4.7716,4.7718,4.7777,4.7718,4.772,4.7722,4.7841,4.7844,4.7846,0,0,0,0,0,0,4.7685,4.769,4.7728,4.7708,4.7712,4.7704,4.7717,4.7714,4.7721,4.7715,4.7713,4.771,4.7712,4.7715,4.7749,4.7777,4.7721,4.7723,4.7839,4.7842,4.7845,4.7893,0,0,0,0,0,0,4.7684,4.769,4.7708,4.7709,4.7713,4.7758,4.7718,4.7716,4.7725,4.7721,4.7723,4.7722,4.7711,4.7746,4.7751,4.7779,4.7725,4.7837,4.784,4.7844,4.7889,4.7898,4.7905,0,0,0,0,0,4.7682,4.7721,4.7709,4.7714,4.7736,4.776,4.7763,4.7749,4.7727,4.7746,4.7742,4.7722,4.7773,4.775,4.7755,4.7784,4.7835,4.7839,4.7844,4.7886,4.7896,4.7905,0,0,0,0,0,0,4.7722,4.772,4.7708,4.7747,4.7754,4.7753,4.7776,4.776,4.7773,4.7768,4.7751,4.7752,4.779,4.779,4.7764,4.7832,4.78,4.7806,4.783,4.784,4.7848,4.7847,4.7727,0,0,0,0,0,4.7736,4.7756,4.7753,4.7789,4.7793,4.7784,4.7794,4.7783,4.779,4.7792,4.7791,4.7798,4.7816,4.7828,4.7844,4.789,4.789,4.7912,4.792,4.7926,4.7931,4.7958,4.7968,4.7861,4.7861,4.7861,0,0,4.7764,4.7766,4.7779,4.7797,4.7801,4.7822,4.7786,4.781,4.7826,4.7796,4.7828,4.7828,4.7835,4.7875,4.7893,4.7877,4.7961,4.7932,4.7937,4.7939,4.7963,4.7973,4.7982,4.7864,4.7863,4.7863,0,0,4.7826,4.7829,4.786,4.7865,4.7872,4.7867,4.7874,4.7876,4.7875,4.7908,4.7886,4.7905,4.7936,4.7942,4.795,4.8018,4.8,4.8024,4.8064,4.809,4.8098,4.8106,4.8131,4.814,4.8029,4.8029,4.8029,0,4.786,4.7892,4.7877,4.7904,4.7913,4.7887,4.7919,4.7925,4.7937,4.7944,4.7926,4.7966,4.7968,4.8011,4.8028,4.8034,4.8043,4.8023,4.8098,4.8105,4.8112,4.8136,4.8146,4.8032,4.8031,4.8031,4.8031,0,4.7934,4.7956,4.798,4.7994,4.8006,4.8034,4.8025,4.8039,4.8029,4.8025,4.806,4.8063,4.808,4.8089,4.8078,4.8131,4.8121,4.8101,4.8068,4.8125,4.8148,4.8157,4.8036,4.8035,4.8034,4.8033,0,0,4.8019,4.8027,4.8036,4.8043,4.805,4.8067,4.8096,4.8113,4.8126,4.8136,4.816,4.8188,4.8171,4.8179,4.8169,4.8192,4.8248,4.8169,4.8169,4.8184,4.8308,4.8323,4.8334,4.8236,4.8238,4.8239,4.8308,0,4.8082,4.8131,4.812,4.8168,4.819,4.8168,4.8193,4.8201,4.8199,4.8218,4.8216,4.8236,4.821,4.8216,4.8237,4.8236,4.8272,4.8231,4.8259,4.826,4.8258,4.8346,4.8362,4.8426,4.8316,4.8318,4.8319,0,4.816,4.8174,4.8225,4.8231,4.824,4.8263,4.8279,4.8297,4.8306,4.8304,4.8315,4.8301,4.8331,4.8298,4.834,4.8312,4.8323,4.8325,4.8327,4.8329,4.8293,4.8351,4.8446,4.8456,4.8332,4.8331,4.833,0,4.8219,4.8251,4.8286,4.8292,4.83,4.8317,4.8321,4.8329,4.8341,4.8355,4.8363,4.8381,4.8391,4.8405,4.8398,4.8375,4.8441,4.8408,4.8441,4.8441,4.8455,4.8454,4.8554,4.8462,4.8462,4.8462,4.8461,0,4.8289,4.8321,4.8313,4.8334,4.8371,4.8359,4.8395,4.8397,4.8404,4.8427,4.8408,4.843,4.8418,4.8439,4.8433,4.8469,4.8473,4.8473,4.8471,4.8475,4.8475,4.8482,4.8477,4.8464,4.8464,4.8463,4.8463,0,4.8361,4.8356,4.8393,4.8398,4.8401,4.8427,4.8432,4.8453,4.8451,4.848,4.8486,4.8483,4.8507,4.8501,4.8526,4.8523,4.8569,4.8561,4.8566,4.8564,4.8598,4.8595,4.8706,4.872,4.8618,4.8619,4.862,0,4.8406,4.843,4.8439,4.8453,4.8459,4.8482,4.8494,4.8485,4.8499,4.8513,4.8533,4.8555,4.8573,4.8612,4.8613,4.8633,4.8626,4.8664,4.8629,4.8633,4.8628,4.8627,4.863,4.867,4.8671,4.8672,4.8673,0,4.8487,4.8484,4.8503,4.8523,4.8539,4.8554,4.8566,4.8579,4.8571,4.8588,4.8613,4.8626,4.8654,4.8677,4.8697,4.8701,4.8687,4.8684,4.8693,4.8697,4.87,4.87,4.8585,4.8682,4.8681,4.868,4.868,4.8679,4.8547,4.8569,4.858,4.8602,4.8611,4.8625,4.8645,4.8647,4.8667,4.8689,4.8683,4.8711,4.8723,4.8747,4.8755,4.8778,4.8764,4.8776,4.8779,4.8783,4.8788,4.8696,4.8781,4.8781,4.8781,4.878,4.878,0,4.8628,4.8635,4.8656,4.8676,4.8694,4.8679,4.8694,4.871,4.8736,4.8748,4.8766,4.8796,4.8819,4.8822,4.8845,4.8863,4.8857,4.8869,4.8868,4.887,4.8798,4.8789,4.8874,4.8874,4.8874,4.8874,4.8874,4.8874,4.8673,4.871,4.8709,4.8751,4.8757,4.8785,4.8795,4.8808,4.8817,4.8851,4.8871,4.8873,4.8882,4.8906,4.8927,4.8927,4.8937,4.8952,4.895,4.8884,4.8874,4.8865,4.8856,4.8954,4.8954,4.902,4.902,4.9021]}]]